DELTA 1 DEB, 10708

Orbit data source: Space-Track

DELTA 1 DEB, 10708 is space debris in SSO originally from a launch on Thu, 29 Jul 1976 UTC launched from the Air Force Western Test Range (AFWTR). Debris objects in space refer to the collection of defunct objects orbiting the Earth. Examples of debris include non-operational satellites, rocket bodies, and fragments generated from explosions, collisions, or faulty payload assembly.

Loading next visibility...
DELTA 1 DEB details
Identifier
10708, 1976-077AD
Orbit
SSO
Last TLE update14 hours ago
Origin
Flag of USGSFC (US)
ManufacturerUnknown
MissionSpacecraft
Bus & MotorUnknown
MassUnknown
Launch date (UTC)
1976-07-29 (48 years ago)
Launch vehicleUnknown
Launch site
Air Force Western Test Range (AFWTR)
Object type
Payload
Rocket body
Debris
Shape & HBRUnknown
Radar Cross SectionSmall (<0.1 m²)

Expand to show TLE details & history

TLE from 14 hours ago
0 DELTA 1 DEB
1 10708U 76077AD  24361.00685775  .00000649  00000-0  36433-2 0  9997
2 10708 101.2237  16.3234 0162203   0.6149  68.5434 12.62910442219897
Epoch: 2024-12-26T00:09Z
Definitive object data (Epoch: 2024-12-26T00:09:52.509Z)
Latitude68.03295°
Longitude-110.4466°
Altitude1,378.151 km
Speed7.197 km/s
True Right ascension23h 08m 03s
True Declination67° 55' 23"
Sunlit
Object was in daylight at TLE epoch
Visualization TLE readout
Latitude-9.23262°
Longitude97.58218°
Altitude1,539.685 km
Speed7.039 km/s
Apparent Right ascension12h 14m 13s
Apparent Declination-60° 31' 48"
Sunlit
Object is in daylight
Visualization observer readout
Local Sidereal Time13:28:19
Azimuth189.182° SSW
Elevation-11.587°
Doppler factor1
Orbital elements
Apogee altitude1,534.754 km
Perigee altitude1,282.152 km
Semi-major axis7,786.59 km
Eccentricity0.0162203
Inclination101.2237°
RAAN16.3234°
Arg. of periapsis0.6149°
True anomaly70.28594°
Mean anomaly68.5434°
Eccentric anomaly69.41341°
Mean motion3.1588 °/min
BSTAR0.0036433
Orbital period113.97 mins
Loading maneuver chart data...
Loading historical data...
Loading historical data...
Loading historical data...
Loading historical data...
Loading historical data...
Loading historical data...
Loading historical data...

DELTA 1 DEB Visibility forecast

Observer location: undefined°, undefined

Span
Click to sort rows by Start time (UTC) header in descending order
Start Az.
Max El. time (UTC)
Max El. Az.
Max El.
End time (UTC)
End Az.
14 mins2024-12-26 15:35:32.463Z358.098° N2024-12-26 15:42:32.463Z297.043° NW28.893°2024-12-26 15:49:32.463Z241.781° WSW
5 mins2024-12-26 22:51:32.463Z63.143° ENE2024-12-26 22:53:32.463Z46.659° ENE13.238°2024-12-26 22:56:32.463Z23.148° NE
14 mins2024-12-27 00:37:32.463Z146.308° SSE2024-12-27 00:43:32.463Z84.825° E42.138°2024-12-27 00:51:32.463Z348.985° N
9 mins2024-12-27 02:32:32.463Z226.965° WSW2024-12-27 02:36:32.463Z266.215° W21.892°2024-12-27 02:41:32.463Z311.798° NW
10 mins2024-12-27 12:35:32.463Z54.042° ENE2024-12-27 12:40:32.463Z95.138° ESE20.156°2024-12-27 12:45:32.463Z133.934° SE
|